ATLAS 5 CENTAUR R/B, 41867

Orbit data source: Space-Track

ATLAS 5 CENTAUR R/B, 41867 is space debris in HEO originally from a launch on Sat, 19 Nov 2016 UTC launched from the Air Force Eastern Test Range (AFETR). Debris objects in space refer to the collection of defunct objects orbiting the Earth. Examples of debris include non-operational satellites, rocket bodies, and fragments generated from explosions, collisions, or faulty payload assembly.

Loading next visibility...
Identifier
41867, 2016-071B
Orbit
HEO
Country
Flag of USUS
Related business
Flag of USUnited Launch Alliance/Lockheed Martin (US)
Manufacturer
ULA Decatur
Mission
Spacecraft
Bus & Motor
CENTAUR SEC, RL10C-1
Mass
~2,020 kg wet, 2,020 kg dry
Launch date (UTC)
2016-11-19 (9 years ago)
Launch vehicle
Unknown
Launch site
Air Force Eastern Test Range (AFETR)
Object type
Payload
Rocket body
Debris
Shape & HBR
Cyl + 1 Nozzle, 5.8 m
Radar Cross Section
32.260 m², Large (>1 m²)

Expand to show TLE details & history
Last TLE update: 12 hours ago

TLE from 12 hours ago
0 ATLAS 5 CENTAUR R/B
1 41867U 16071B   25349.80934139 -.00000076  00000-0  00000-0 0  9995
2 41867  11.2340 271.7809 4925547 130.9449 283.6187  1.89345337 62746
Epoch: 2025-12-15T19:25Z
TLE epoch observation values (Epoch: 2025-12-15T19:25:27.096Z)
Latitude
-0°
Longitude
-104.26149°
Altitude
24,506.975 km
Speed
3.372 km/s
True Right ascension
18h 07m 12s
True Declination
0° 00' 00"
Sunlit
Object was in daylight at epoch
Visualization orbit readout
Latitude
Unknown
Longitude
Unknown
Altitude
Unknown
Speed
Unknown
Apparent Right ascension
Unknown
Apparent Declination
Unknown
Sunlit
N/A
Visualization observer readout
Local Sidereal Time
06:18:50
Azimuth
Unknown
Elevation
Unknown
Doppler factor
Unknown
Orbital elements
Apogee altitude
34,818.827 km
Perigee altitude
7,628.188 km
Semi-major axis
27,601.645 km
Eccentricity
0.49255
Inclination
11.234°
RAAN
271.7809°
Arg. of periapsis
130.9449°
True anomaly
229.14762°
Mean anomaly
283.6187°
Eccentric anomaly
256.21076°
Mean motion
0.4733 °/min
Orbital period
760.61 mins
BSTAR
0
Loading maneuver chart data...
Computing Atmospheric mass density...
Loading historical data...
Loading historical data...
Loading historical data...
Loading historical data...
Loading historical data...
Loading historical data...
Loading historical data...
Other satellites on launch #71 in the year 2016 (2016-11-19 UTC)

Documentation

Showing up to 5 results
|